Regional Weather Roundup
Issued by NWS

Home | Current Version | Previous Version | Text Only | Print | Product List | Glossary On
Versions: 1 2 3 4 5 6 7 8 9 10 11 12 13 14 15 16 17 18 19 20 21 22 23 24 25 26 27 28 29 30 31 32 33 34 35 36 37 38 39 40 41 42 43 44 45 46 47 48 49 50
000
ASUS46 KSEW 220610
RWRWA

WASHINGTON REGIONAL WEATHER ROUNDUP
NATIONAL WEATHER SERVICE SEATTLE WA
1100 PM PDT THU SEP 21 2017

NOTE:"FAIR" INDICATES FEW OR NO CLOUDS BELOW 12,000 FEET WITH NO
SIGNIFICANT WEATHER AND/OR OBSTRUCTIONS TO VISIBILITY.

WAZ507-509-555>559-220700-
SEATTLE, TACOMA, EVERETT, AND VICINITY

CITY           SKY/WX    TMP DP  RH WIND       PRES   REMARKS
EVERETT        CLOUDY    54  49  83 CALM      30.01R
6HR MIN TEMP:  53; 6HR MAX TEMP:  62; 6HR PCP: TRACE;

BOEING FIELD   MOCLDY    54  48  80 SE3       30.00S
6HR MIN TEMP:  53; 6HR MAX TEMP:  64;

RENTON         CLOUDY    53  50  89 CALM      30.00S
6HR MIN TEMP:  53; 6HR MAX TEMP:  64; 6HR PCP: TRACE;

SEATAC AIRPORT MOCLDY    54  46  74 SE3       30.00S
6HR MIN TEMP:  53; 6HR MAX TEMP:  63;

JBLM-MCCHORD   PTCLDY    46  46 100 CALM      30.00S
6HR MIN TEMP:  46; 6HR MAX TEMP:  63;

PUYALLUP       FAIR      48  48 100 CALM      30.01S
BREMERTON      PTCLDY    46  45  96 CALM      30.01R
6HR MIN TEMP:  46; 6HR MAX TEMP:  63;

JBLM-FT LEWIS  PTCLDY    46  46  99 SE7       30.00R
6HR MIN TEMP:  46; 6HR MAX TEMP:  62;

TACOMA NARROWS PTCLDY    51  47  86 CALM      30.00S
6HR MIN TEMP:  50; 6HR MAX TEMP:  60;

$$

WAZ001-503-506-510-514-515-220700-
NORTH INTERIOR

CITY           SKY/WX    TMP DP  RH WIND       PRES   REMARKS
BELLINGHAM     CLOUDY    53  50  89 CALM      29.99S
6HR MIN TEMP:  53; 6HR MAX TEMP:  62;

FRIDAY HARBOR  CLOUDY    51  48  89 CALM      30.01R
6HR MIN TEMP:  51; 6HR MAX TEMP:  60;

EASTSOUND      CLOUDY    54  48  82 CALM      30.00S
PORT ANGELES   CLOUDY    55  43  63 SW5       30.01S
6HR MIN TEMP:  53; 6HR MAX TEMP:  65;

EDIZ HOOK      CLOUDY    55  44  67 W6        30.00F
6HR MIN TEMP:  51; 6HR MAX TEMP:  60;

PORT TOWNSEND  CLOUDY    55  45  67 CALM      30.01R
NAS WHIDBEY    CLOUDY    55  47  74 CALM      30.03S
6HR MIN TEMP:  54; 6HR MAX TEMP:  59;

ARLINGTON      CLOUDY    53  49  86 SE5       30.01R
6HR MIN TEMP:  53; 6HR MAX TEMP:  62;

BURLINGTON     CLOUDY    55  48  76 CALM      29.99S
$$

WAZ020-022-039-040-504-511-512-220700-
SOUTHWEST INTERIOR

CITY           SKY/WX    TMP DP  RH WIND       PRES   REMARKS
SHELTON        PTCLDY    50  47  89 NW3       29.99R
6HR MIN TEMP:  47; 6HR MAX TEMP:  66;

OLYMPIA        CLEAR     47  46  97 CALM      30.01R
6HR MIN TEMP:  45; 6HR MAX TEMP:  63;

CHEHALIS       FAIR      46  46 100 CALM      30.01S
KELSO          CLEAR     48  48 100 CALM      30.02R
6HR MIN TEMP:  48; 6HR MAX TEMP:  63; 6HR PCP:  0.03;

VANCOUVER      CLEAR     50  48  93 CALM      29.99S
6HR MIN TEMP:  50; 6HR MAX TEMP:  64;

SCAPPOOSE, OR  CLOUDY    51  49  92 N6        29.99S
6HR MIN TEMP:  50; 6HR MAX TEMP:  62; 6HR PCP: TRACE;

PORTLAND, OR   PTCLDY    53  49  86 NW5       30.00S
6HR MIN TEMP:  52; 6HR MAX TEMP:  62; 6HR PCP: TRACE;

$$

WAZ021-516-517-220700-
WASHINGTON COAST

CITY           SKY/WX    TMP DP  RH WIND       PRES   REMARKS
FORKS          CLEAR     46  44  93 CALM      30.02R
6HR MIN TEMP:  46; 6HR MAX TEMP:  59;

HOQUIAM        CLEAR     51  50  96 NW3       30.02R
6HR MIN TEMP:  51; 6HR MAX TEMP:  61; 6HR PCP:  0.01;

ASTORIA, OR    PTCLDY    50  48  93 SE3       30.01R
6HR MIN TEMP:  50; 6HR MAX TEMP:  61; 6HR PCP: TRACE;

$$

WAZ019-023-024-040-567>569-220700-
CASCADE MOUNTAINS AND COLUMBIA GORGE

CITY           SKY/WX    TMP DP  RH WIND       PRES   REMARKS
STAMPEDE PASS  FOG       40  40 100 CALM      29.99S VSB 1
TROUTDALE, OR  PTCLDY    53  48  83 CALM      29.99S
6HR MIN TEMP:  53; 6HR MAX TEMP:  62; 6HR PCP: TRACE;

HOOD RIVER, OR DRIZZLE   52  50  93 CALM      30.00S
THE DALLES, OR CLOUDY    54  48  80 W3        29.98S
6HR MIN TEMP:  54; 6HR MAX TEMP:  61; 6HR PCP:  0.01;

$$

WAZ026-027-041>044-520-521-220700-
EAST SLOPES

CITY           SKY/WX    TMP DP  RH WIND       PRES   REMARKS
OMAK           CLOUDY    52  40  63 CALM      29.96S
6HR MIN TEMP:  50; 6HR MAX TEMP:  62;

WENATCHEE      CLOUDY    52  41  66 NW5       29.96S
6HR MIN TEMP:  52; 6HR MAX TEMP:  57; 6HR PCP: TRACE;

ELLENSBURG     CLOUDY    49  42  77 N7        29.96F
6HR MIN TEMP:  49; 6HR MAX TEMP:  57; 6HR PCP:  0.01;

YAKIMA         CLOUDY    51  46  83 CALM      29.97S
6HR MIN TEMP:  51; 6HR MAX TEMP:  61; 6HR PCP:  0.03;

SUNNYSIDE ARPT CLOUDY    49  44  81 SW3       29.96S
6HR MIN TEMP:  49; 6HR MAX TEMP:  57;

YAKIMA TC      MOCLDY    46  42  85 S3        29.95S
6HR MIN TEMP:  46; 6HR MAX TEMP:  52; 6HR PCP:  0.02;

$$

WAZ028-034-035-220700-
COLUMBIA BASIN

CITY           SKY/WX    TMP DP  RH WIND       PRES   REMARKS
EPHRATA        CLOUDY    50  38  63 N5        29.96S
6HR MIN TEMP:  50; 6HR MAX TEMP:  59;

MOSES LAKE     CLOUDY    46  43  89 N5        29.97S
6HR MIN TEMP:  46; 6HR MAX TEMP:  59; 6HR PCP:  0.03;

PASCO          MOCLDY    52  45  77 CALM      29.95S
6HR MIN TEMP:  51; 6HR MAX TEMP:  64;

RICHLAND ARPT  LGT RAIN  52  51  94 SW6       29.94F
6HR MIN TEMP:  52; 6HR MAX TEMP:  64; 6HR PCP:  0.04;

HERMISTON, OR  MOCLDY    48  45  89 MISG      29.95R
6HR MIN TEMP:  46; 6HR MAX TEMP:  62;

$$

WAZ036>038-220700-
NORTHEAST WASHINGTON

CITY           SKY/WX    TMP DP  RH WIND       PRES   REMARKS
SPOKANE GEIGER PTCLDY    43  41  93 NE5       29.95F
6HR MIN TEMP:  42; 6HR MAX TEMP:  50;

SPOKANE FELTS  CLEAR     42  42 100 NE3       29.97S FOG
6HR MIN TEMP:  41; 6HR MAX TEMP:  53;

FAIRCHILD AFB  PTCLDY    42  42 100 NE8       29.94F
6HR MIN TEMP:  40; 6HR MAX TEMP:  49; 6HR PCP: TRACE;

COEURDALENE,ID CLEAR     42  40  92 NE8       29.97S
6HR MIN TEMP:  41; 6HR MAX TEMP:  49;

DEER PARK      MOCLDY    39  38  96 NE8       29.96F
6HR MIN TEMP:  35; 6HR MAX TEMP:  51;

$$

WAZ029>033-220700-
SOUTHEAST WASHINGTON

CITY           SKY/WX    TMP DP  RH WIND       PRES   REMARKS
PULLMAN        CLEAR     40  37  89 CALM      29.95R
6HR MIN TEMP:  39; 6HR MAX TEMP:  53;

LEWISTON, ID   CLEAR     46  41  82 CALM      29.94R
6HR MIN TEMP:  45; 6HR MAX TEMP:  61;

WALLA WALLA    PTCLDY    49  41  74 SE6       29.94R
6HR MIN TEMP:  48; 6HR MAX TEMP:  60;

PENDLETON, OR  MOCLDY    48  41  76 S5        29.94R
6HR MIN TEMP:  46; 6HR MAX TEMP:  61;

$$



USA.gov is the U.S. government's official web portal to all federal, state and local government web resources and services.